SV1BYK-2 Weather Reports


Display with metric or nautical units.
time (UTC)temp
F
wind
direction
speed
MPH
gust
MPH
rain 1hr
in
rain 24hr
in
rain mn
in
humidity
%
barometer
mb
20260902073603 92 234 4.0 8.0 0.00 0.00 0.00 30 1009.3
20260902072703 92 250 2.0 7.0 0.00 0.00 0.00 30 1009.3
20260902071803 91 258 2.0 8.0 0.00 0.00 0.00 31 1009.0
20260902070904 91 249 4.0 8.0 0.00 0.00 0.00 31 1009.0
20260902070006 91 257 3.0 7.0 0.00 0.00 0.00 32 1009.2
20260902065617 91 257 2.0 8.0 0.00 0.00 0.00 31 1009.2
20260902064714 90 268 4.0 8.0 0.00 0.00 0.00 32 1009.0
20260902063603 90 222 2.0 6.0 0.00 0.00 0.00 31 1008.8
20260902062703 90 249 2.0 4.0 0.00 0.00 0.00 32 1008.9
20260902062016 90 252 2.0 4.0 0.00 0.00 0.00 33 1009.0
20260902061113 90 254 2.0 4.0 0.00 0.00 0.00 33 1008.9
20260902060216 89 275 1.0 4.0 0.00 0.00 0.00 33 1008.9
20260902055403 89 303 2.0 4.0 0.00 0.00 0.00 36 1008.8
20260902054504 89 257 0.0 2.0 0.00 0.00 0.00 38 1008.8
20260902053817 88 270 0.0 2.0 0.00 0.00 0.00 41 1008.8
20260902052704 87 0 0.0 0.0 0.00 0.00 0.00 40 1008.8
20260902052017 86 267 0.0 4.0 0.00 0.00 0.00 43 1009.1
20260902051114 85 292 0.0 2.0 0.00 0.00 0.00 44 1009.0
20260902050006 83 292 0.0 2.0 0.00 0.00 0.00 48 1009.1
20260902045403 83 292 0.0 2.0 0.00 0.00 0.00 48 1009.1
20260902044503 83 292 0.0 2.0 0.00 0.00 0.00 47 1009.0
20260902043603 82 292 1.0 2.0 0.00 0.00 0.00 49 1008.8
20260902042704 82 283 0.0 2.0 0.00 0.00 0.00 49 1008.9
20260902041804 81 276 0.0 2.0 0.00 0.00 0.00 49 1008.8
20260902041115 81 281 2.0 2.0 0.00 0.00 0.00 50 1008.6
20260902040217 81 239 2.0 2.0 0.00 0.00 0.00 50 1008.8
20260902035614 81 154 0.0 2.0 0.00 0.00 0.00 50 1008.9
20260902034503 82 261 1.0 2.0 0.00 0.00 0.00 49 1008.6
20260902033813 82 270 1.0 2.0 0.00 0.00 0.00 49 1008.5
20260902032916 82 283 0.0 2.0 0.00 0.00 0.00 48 1008.6
20260902031803 82 290 2.0 2.0 0.00 0.00 0.00 47 1008.4
20260902030904 81 292 0.0 2.0 0.00 0.00 0.00 47 1008.4
20260902030218 82 292 1.0 2.0 0.00 0.00 0.00 47 1008.2
20260902025614 82 292 0.0 4.0 0.00 0.00 0.00 47 1008.4
20260902024717 83 299 1.0 4.0 0.00 0.00 0.00 47 1008.2
20260902023814 83 302 0.0 4.0 0.00 0.00 0.00 46 1008.1
20260902022703 83 295 3.0 6.0 0.00 0.00 0.00 45 1008.3
20260902022014 83 298 4.0 4.0 0.00 0.00 0.00 45 1008.1
20260902021116 83 305 4.0 6.0 0.00 0.00 0.00 44 1008.3
20260902020004 83 306 4.0 4.0 0.00 0.00 0.00 44 1008.4
20260902015615 83 306 1.0 6.0 0.00 0.00 0.00 44 1008.3
20260902014717 83 299 0.0 7.0 0.00 0.00 0.00 44 1008.4
20260902013604 83 299 0.0 4.0 0.00 0.00 0.00 45 1008.3
20260902012917 83 294 1.0 4.0 0.00 0.00 0.00 46 1008.6
20260902011804 84 295 2.0 6.0 0.00 0.00 0.00 44 1008.3
20260902010903 84 307 2.0 6.0 0.00 0.00 0.00 43 1008.5
20260902010004 84 305 2.0 7.0 0.00 0.00 0.00 43 1008.5
20260902005403 84 306 4.0 7.0 0.00 0.00 0.00 43 1008.3
20260902004503 84 306 3.0 6.0 0.00 0.00 0.00 45 1008.3
20260902003815 84 311 3.0 4.0 0.00 0.00 0.00 45 1008.2
20260902002703 84 308 4.0 7.0 0.00 0.00 0.00 46 1008.4
20260902001804 84 315 4.0 4.0 0.00 0.00 0.00 46 1008.2
20260902000904 84 294 1.0 4.0 0.00 0.00 0.00 47 1008.3
20260902000004 84 305 3.0 6.0 0.00 0.00 0.00 47 1008.2
20260901235616 84 306 4.0 4.0 0.00 0.00 0.00 47 1008.1
20260901234503 83 303 2.0 4.0 0.00 0.00 0.00 47 1008.5
20260901233603 83 303 1.0 4.0 0.00 0.00 0.00 47 1008.3
20260901232913 83 300 1.0 6.0 0.00 0.00 0.00 47 1008.4
20260901232016 83 300 4.0 7.0 0.00 0.00 0.00 48 1008.3
20260901231113 83 302 3.0 6.0 0.00 0.00 0.00 48 1008.3
20260901230004 83 317 2.0 6.0 0.00 0.00 0.00 48 1008.4
20260901225404 83 333 0.0 4.0 0.00 0.00 0.00 49 1008.4
20260901224504 83 326 2.0 7.0 0.00 0.00 0.00 48 1008.3
20260901223604 83 318 2.0 6.0 0.00 0.00 0.00 48 1008.3
20260901222703 84 308 1.0 4.0 0.00 0.00 0.00 48 1008.5
20260901221803 84 317 1.0 6.0 0.00 0.00 0.00 48 1008.6
20260901221113 84 312 2.0 6.0 0.00 0.00 0.00 48 1008.4
20260901220216 84 303 2.0 4.0 0.00 0.00 0.00 48 1008.6
20260901215617 84 302 0.0 4.0 0.00 0.00 0.00 48 1008.7
20260901214715 84 302 0.0 4.0 0.00 0.00 0.00 47 1008.3
20260901213603 84 321 2.0 4.0 0.00 0.00 0.00 47 1008.4
20260901212914 84 310 2.0 7.0 0.00 0.00 0.00 47 1008.5
20260901211804 84 316 0.0 6.0 0.00 0.00 0.00 47 1008.4
20260901210904 84 304 1.0 6.0 0.00 0.00 0.00 47 1008.3
20260901210010 84 292 2.0 6.0 0.00 0.00 0.00 47 1008.6
20260901205403 84 294 1.0 4.0 0.00 0.00 0.00 46 1008.4
20260901204503 85 282 0.0 4.0 0.00 0.00 0.00 46 1008.3
20260901203813 85 283 0.0 4.0 0.00 0.00 0.00 46 1008.5
20260901202915 85 282 1.0 6.0 0.00 0.00 0.00 46 1008.5
20260901201803 85 273 2.0 4.0 0.00 0.00 0.00 46 1008.4
20260901200904 85 256 0.0 2.0 0.00 0.00 0.00 45 1008.5
20260901200217 85 284 2.0 2.0 0.00 0.00 0.00 45 1008.5
20260901195614 85 304 1.0 4.0 0.00 0.00 0.00 45 1008.4
20260901194504 85 311 1.0 8.0 0.00 0.00 0.00 45 1008.5
20260901193813 85 296 0.0 4.0 0.00 0.00 0.00 45 1008.6
20260901192916 86 284 0.0 2.0 0.00 0.00 0.00 44 1008.5
20260901192013 86 291 0.0 4.0 0.00 0.00 0.00 44 1008.4
20260901190903 86 244 2.0 4.0 0.00 0.00 0.00 44 1008.3
20260901190213 86 216 1.0 4.0 0.00 0.00 0.00 44 1008.6
20260901185614 86 280 2.0 4.0 0.00 0.00 0.00 44 1008.5
20260901184717 86 276 1.0 4.0 0.00 0.00 0.00 43 1008.4
20260901183604 87 338 1.0 9.0 0.00 0.00 0.00 43 1008.3
20260901182916 87 318 2.0 9.0 0.00 0.00 0.00 43 1008.4
20260901182014 87 277 1.0 4.0 0.00 0.00 0.00 42 1008.1
20260901180903 87 273 2.0 4.0 0.00 0.00 0.00 42 1008.1
20260901180004 87 258 2.0 4.0 0.00 0.00 0.00 41 1007.7
20260901175615 88 260 1.0 4.0 0.00 0.00 0.00 41 1007.9
20260901174717 88 278 1.0 6.0 0.00 0.00 0.00 40 1007.5
20260901173815 88 242 1.0 4.0 0.00 0.00 0.00 40 1007.6
20260901172917 88 255 2.0 4.0 0.00 0.00 0.00 39 1007.6
20260901172014 89 239 1.0 4.0 0.00 0.00 0.00 39 1007.3
20260901170904 89 213 1.0 4.0 0.00 0.00 0.00 39 1007.5
20260901170004 89 238 1.0 4.0 0.00 0.00 0.00 39 1007.4
20260901165616 90 226 1.0 4.0 0.00 0.00 0.00 38 1007.4
20260901164713 90 253 1.0 4.0 0.00 0.00 0.00 38 1007.3
20260901163815 91 254 2.0 4.0 0.00 0.00 0.00 37 1007.1
20260901162918 92 259 2.0 4.0 0.00 0.00 0.00 37 1007.1
20260901161803 92 252 2.0 4.0 0.00 0.00 0.00 36 1007.1
20260901161117 94 237 2.0 4.0 0.00 0.00 0.00 35 1006.9
20260901160215 94 222 2.0 4.0 0.00 0.00 0.00 34 1007.1
20260901155403 94 240 2.0 4.0 0.00 0.00 0.00 34 1007.1
20260901154504 95 129 2.0 4.0 0.00 0.00 0.00 33 1007.0
20260901153816 94 121 2.0 6.0 0.00 0.00 0.00 33 1006.9
20260901152704 94 95 1.0 6.0 0.00 0.00 0.00 33 1007.1
20260901151803 96 87 2.0 6.0 0.00 0.00 0.00 32 1006.9
20260901151113 94 94 2.0 11.0 0.00 0.00 0.00 33 1007.1
20260901150004 94 104 4.0 8.0 0.00 0.00 0.00 33 1007.0
20260901145403 95 140 3.0 6.0 0.00 0.00 0.00 33 1006.9
20260901144503 95 109 2.0 7.0 0.00 0.00 0.00 34 1007.0
20260901143603 95 106 4.0 9.0 0.00 0.00 0.00 33 1007.0
20260901142914 95 105 4.0 11.0 0.00 0.00 0.00 32 1007.0
20260901142016 94 113 6.0 11.0 0.00 0.00 0.00 35 1007.0
20260901141113 97 117 3.0 7.0 0.00 0.00 0.00 30 1007.2
20260901140216 97 72 2.0 11.0 0.00 0.00 0.00 30 1007.0
20260901135617 97 274 4.0 6.0 0.00 0.00 0.00 30 1007.4
20260901134503 99 224 2.0 6.0 0.00 0.00 0.00 29 1007.1
20260901133817 98 222 2.0 6.0 0.00 0.00 0.00 30 1007.1
20260901132914 97 285 2.0 11.0 0.00 0.00 0.00 30 1007.0
20260901131803 98 267 2.0 6.0 0.00 0.00 0.00 30 1007.1
20260901130903 97 262 2.0 7.0 0.00 0.00 0.00 30 1007.0
20260901130004 98 286 2.0 9.0 0.00 0.00 0.00 29 1007.0
20260901125613 97 268 4.0 9.0 0.00 0.00 0.00 30 1007.0
20260901124715 98 240 3.0 11.0 0.00 0.00 0.00 30 1007.2
20260901123813 97 275 3.0 8.0 0.00 0.00 0.00 29 1007.2
20260901122915 97 195 4.0 11.0 0.00 0.00 0.00 30 1007.5
20260901122017 96 58 4.0 11.0 0.00 0.00 0.00 30 1007.6
20260901120903 97 255 2.0 8.0 0.00 0.00 0.00 29 1007.6
20260901120004 97 273 3.0 8.0 0.00 0.00 0.00 29 1007.4
20260901115403 96 288 3.0 9.0 0.00 0.00 0.00 29 1007.5
20260901114503 96 255 4.0 9.0 0.00 0.00 0.00 30 1007.6
20260901113603 96 263 3.0 8.0 0.00 0.00 0.00 29 1007.7
20260901112916 96 219 3.0 11.0 0.00 0.00 0.00 29 1007.6
20260901111804 96 267 2.0 9.0 0.00 0.00 0.00 30 1007.6
20260901111115 96 267 4.0 11.0 0.00 0.00 0.00 29 1007.6
20260901110218 96 102 2.0 11.0 0.00 0.00 0.00 29 1007.7
20260901105403 95 213 4.0 11.0 0.00 0.00 0.00 29 1007.8
20260901104503 94 304 5.0 11.0 0.00 0.00 0.00 30 1007.7
20260901103603 95 282 4.0 13.0 0.00 0.00 0.00 30 1007.7
20260901102703 94 288 4.0 11.0 0.00 0.00 0.00 30 1007.8
20260901102014 94 281 4.0 13.0 0.00 0.00 0.00 30 1007.9
20260901101116 94 201 4.0 11.0 0.00 0.00 0.00 29 1008.0
20260901100004 95 273 4.0 8.0 0.00 0.00 0.00 28 1008.1
20260901095404 96 276 2.0 6.0 0.00 0.00 0.00 29 1008.0
20260901094504 95 289 2.0 9.0 0.00 0.00 0.00 30 1008.1
20260901093815 94 304 2.0 9.0 0.00 0.00 0.00 31 1008.1
20260901092917 94 257 3.0 7.0 0.00 0.00 0.00 31 1008.3
20260901091803 94 260 2.0 6.0 0.00 0.00 0.00 32 1008.6
20260901090903 95 251 2.0 8.0 0.00 0.00 0.00 31 1008.3
20260901090214 94 261 2.0 9.0 0.00 0.00 0.00 32 1008.3
20260901085403 93 274 4.0 9.0 0.00 0.00 0.00 32 1008.1
20260901084718 94 267 2.0 6.0 0.00 0.00 0.00 32 1008.2
20260901083604 93 251 2.0 6.0 0.00 0.00 0.00 33 1008.2
20260901082918 93 287 2.0 8.0 0.00 0.00 0.00 33 1008.1
20260901081804 92 276 2.0 8.0 0.00 0.00 0.00 34 1008.3
20260901081117 91 263 2.0 7.0 0.00 0.00 0.00 35 1008.3
20260901080215 92 288 2.0 4.0 0.00 0.00 0.00 35 1008.3
20260901075404 91 286 2.0 4.0 0.00 0.00 0.00 36 1008.2
20260901074713 91 296 1.0 6.0 0.00 0.00 0.00 36 1008.3